N1JOT Weather Reports


Display with metric or nautical units.
time (UTC)temp
F
wind
direction
speed
MPH
gust
MPH
rain 1hr
in
rain 24hr
in
rain mn
in
humidity
%
barometer
mb
20260903231059 71 73 1.0 3.0 0.00 0.30 0.30 90 1012.2
20260903230559 72 69 0.0 2.0 0.00 0.30 0.30 90 1012.1
20260903230114 72 0 0.0 2.0 0.00 0.30 0.30 89 1012.3
20260903225600 72 0 0.0 4.0 0.00 0.30 0.30 89 1012.3
20260903225100 73 0 1.0 4.0 0.00 0.30 0.30 88 1012.3
20260903224630 73 69 2.0 3.0 0.00 0.30 0.30 88 1012.2
20260903224100 73 66 1.0 3.0 0.00 0.30 0.30 88 1012.4
20260903223559 73 63 0.0 2.0 0.00 0.30 0.30 88 1012.2
20260903223135 73 74 0.0 2.0 0.00 0.30 0.30 89 1012.4
20260903222601 73 74 0.0 3.0 0.00 0.30 0.30 88 1012.5
20260903222100 73 0 0.0 3.0 0.00 0.30 0.30 88 1012.6
20260903221607 73 74 0.0 2.0 0.00 0.30 0.30 87 1012.7
20260903221103 74 0 0.0 3.0 0.00 0.30 0.30 86 1012.5
20260903220559 74 0 0.0 4.0 0.00 0.30 0.30 86 1012.4
20260903220104 74 82 2.0 4.0 0.00 0.30 0.30 85 1012.5
20260903215600 74 70 1.0 4.0 0.00 0.30 0.30 85 1012.4
20260903215059 74 82 1.0 4.0 0.00 0.30 0.30 85 1012.3
20260903214606 74 71 1.0 7.0 0.00 0.30 0.30 85 1012.2
20260903214101 74 66 4.0 7.0 0.00 0.30 0.30 84 1012.2
20260903213600 74 78 1.0 5.0 0.00 0.30 0.30 85 1012.1
20260903213114 74 109 3.0 5.0 0.00 0.30 0.30 84 1012.1
20260903212600 75 78 1.0 5.0 0.00 0.30 0.30 85 1012.2
20260903212100 75 74 3.0 5.0 0.00 0.30 0.30 84 1012.2
20260903211602 75 86 2.0 4.0 0.00 0.30 0.30 84 1012.4
20260903211059 75 71 2.0 5.0 0.00 0.30 0.30 85 1012.4
20260903210559 75 62 2.0 5.0 0.00 0.30 0.30 85 1012.4
20260903210144 74 67 3.0 5.0 0.00 0.30 0.30 85 1012.4
20260903205600 74 72 4.0 5.0 0.00 0.30 0.30 85 1012.3
20260903205100 75 73 2.0 5.0 0.00 0.30 0.30 84 1012.3
20260903204602 75 78 2.0 5.0 0.00 0.30 0.30 84 1012.4
20260903204103 75 88 2.0 5.0 0.00 0.30 0.30 85 1012.5
20260903203601 75 71 2.0 5.0 0.00 0.30 0.30 85 1012.4
20260903203103 75 71 1.0 5.0 0.00 0.30 0.30 85 1012.5
20260903202601 75 0 0.0 3.0 0.00 0.30 0.30 85 1012.7
20260903202101 75 0 1.0 4.0 0.00 0.30 0.30 84 1012.5
20260903201601 75 0 2.0 6.0 0.00 0.30 0.30 84 1012.5
20260903201101 76 65 1.0 6.0 0.00 0.30 0.30 84 1012.5
20260903200600 76 82 1.0 3.0 0.00 0.30 0.30 85 1012.4
20260903200106 76 101 0.0 3.0 0.00 0.30 0.30 85 1012.5
20260903195601 76 128 0.0 3.0 0.00 0.30 0.30 84 1012.6
20260903195100 76 0 0.0 3.0 0.00 0.30 0.30 84 1012.5
20260903194602 76 5 1.0 4.0 0.00 0.30 0.30 84 1012.5
20260903194102 76 0 1.0 6.0 0.00 0.30 0.30 83 1012.6
20260903193601 76 67 2.0 6.0 0.00 0.30 0.30 83 1012.7
20260903193106 76 128 2.0 6.0 0.00 0.30 0.30 82 1012.8
20260903192601 76 90 1.0 5.0 0.00 0.30 0.30 82 1012.9
20260903192100 76 37 0.0 3.0 0.00 0.30 0.30 82 1013.0
20260903191607 77 107 0.0 3.0 0.00 0.30 0.30 82 1012.9
20260903191101 77 108 0.0 6.0 0.00 0.30 0.30 81 1012.9
20260903190602 77 0 1.0 6.0 0.00 0.30 0.30 80 1012.9
20260903190107 77 55 1.0 6.0 0.00 0.30 0.30 80 1013.0
20260903185600 77 59 0.0 4.0 0.00 0.30 0.30 80 1013.0
20260903185103 77 355 1.0 4.0 0.00 0.30 0.30 80 1013.1
20260903184606 78 0 0.0 2.0 0.00 0.30 0.30 83 1013.1
20260903184101 78 0 0.0 2.0 0.00 0.30 0.30 81 1013.0
20260903183600 78 0 0.0 2.0 0.00 0.30 0.30 80 1013.2
20260903183121 78 310 0.0 2.0 0.00 0.30 0.30 81 1013.2
20260903182602 78 0 0.0 3.0 0.00 0.30 0.30 79 1013.2
20260903182059 77 317 0.0 3.0 0.00 0.30 0.30 81 1013.2
20260903181618 77 263 1.0 3.0 0.00 0.30 0.30 84 1013.4
20260903181100 77 0 0.0 1.0 0.00 0.30 0.30 84 1013.4
20260903180601 77 0 0.0 2.0 0.00 0.30 0.30 82 1013.4
20260903180117 78 0 0.0 2.0 0.00 0.30 0.30 81 1013.3
20260903175621 78 0 0.0 2.0 0.00 0.30 0.30 79 1013.3
20260903175100 79 0 0.0 3.0 0.00 0.30 0.30 78 1013.4
20260903174605 79 0 0.0 3.0 0.00 0.30 0.30 76 1013.2
20260903174059 78 71 0.0 3.0 0.00 0.30 0.30 78 1013.2
20260903173600 78 298 0.0 3.0 0.00 0.30 0.30 78 1013.3
20260903173103 78 0 0.0 3.0 0.00 0.30 0.30 80 1013.3
20260903172602 78 322 0.0 3.0 0.00 0.30 0.30 81 1013.4
20260903172059 78 0 0.0 5.0 0.00 0.30 0.30 78 1013.5
20260903171613 78 185 1.0 5.0 0.00 0.30 0.30 81 1013.6
20260903171059 78 233 0.0 3.0 0.00 0.30 0.30 81 1013.6
20260903170559 77 19 0.0 2.0 0.00 0.30 0.30 80 1013.5
20260903170106 77 0 0.0 3.0 0.00 0.30 0.30 81 1013.5
20260903165601 76 0 0.0 3.0 0.00 0.30 0.30 83 1013.5
20260903165101 77 5 0.0 3.0 0.00 0.30 0.30 83 1013.5
20260903164614 77 0 0.0 3.0 0.00 0.30 0.30 83 1013.5
20260903164100 76 0 1.0 3.0 0.00 0.30 0.30 85 1013.5
20260903163559 76 0 0.0 3.0 0.00 0.30 0.30 86 1013.5
20260903163106 75 220 0.0 2.0 0.00 0.30 0.30 87 1013.5
20260903162601 75 327 0.0 3.0 0.00 0.30 0.30 88 1013.4
20260903162100 74 0 0.0 3.0 0.00 0.30 0.30 89 1013.4
20260903161602 74 311 0.0 1.0 0.00 0.30 0.30 90 1013.4
20260903161059 74 0 0.0 2.0 0.00 0.30 0.30 91 1013.6
20260903160559 74 0 0.0 2.0 0.00 0.30 0.30 92 1013.7
20260903160111 73 0 0.0 2.0 0.00 0.30 0.30 92 1013.6
20260903155600 73 0 0.0 4.0 0.00 0.30 0.30 92 1013.7
20260903155101 73 0 0.0 4.0 0.00 0.30 0.30 93 1013.8
20260903154609 72 209 0.0 4.0 0.00 0.30 0.30 93 1014.0
20260903154100 72 0 0.0 4.0 0.00 0.30 0.30 93 1014.1
20260903153559 72 0 0.0 4.0 0.00 0.30 0.30 93 1014.2
20260903153104 72 265 0.0 4.0 0.00 0.30 0.30 93 1014.3
20260903152600 73 232 0.0 1.0 0.00 0.30 0.30 93 1014.3
20260903152100 73 0 0.0 2.0 0.00 0.30 0.30 94 1014.4
20260903151600 73 0 0.0 2.0 0.00 0.30 0.30 94 1014.2
20260903151100 72 0 0.0 2.0 0.00 0.30 0.30 94 1014.3
20260903150601 72 0 0.0 3.0 0.00 0.30 0.30 95 1014.4
20260903150108 72 0 0.0 3.0 0.00 0.30 0.30 95 1014.5
20260903145559 71 0 0.0 3.0 0.00 0.30 0.30 95 1014.5
20260903145102 71 0 0.0 3.0 0.00 0.30 0.30 95 1014.6
20260903144601 71 215 0.0 3.0 0.00 0.30 0.30 95 1014.7
20260903144102 71 0 0.0 3.0 0.00 0.30 0.30 95 1014.9
20260903143559 71 329 0.0 3.0 0.00 0.30 0.30 95 1014.8
20260903143107 71 249 0.0 3.0 0.00 0.30 0.30 95 1014.9
20260903142559 71 193 0.0 3.0 0.00 0.30 0.30 95 1014.9
20260903142059 71 0 0.0 2.0 0.00 0.30 0.30 95 1015.0
20260903141611 70 0 0.0 3.0 0.00 0.30 0.30 95 1015.1
20260903141058 70 0 0.0 4.0 0.00 0.30 0.30 95 1015.1
20260903140559 70 0 0.0 4.0 0.00 0.30 0.30 95 1015.3
20260903140115 70 202 0.0 1.0 0.00 0.30 0.30 95 1015.4
20260903135559 70 0 0.0 1.0 0.00 0.30 0.30 95 1015.4
20260903135059 70 0 0.0 1.0 0.00 0.30 0.30 95 1015.3
20260903134610 70 0 0.0 1.0 0.00 0.30 0.30 95 1015.2
20260903134056 70 0 0.0 1.0 0.00 0.30 0.30 95 1015.2
20260903133556 69 0 0.0 1.0 0.00 0.30 0.30 95 1015.2
20260903133109 69 0 0.0 2.0 0.00 0.30 0.30 95 1015.0
20260903132600 69 0 0.0 2.0 0.00 0.30 0.30 95 1015.1
20260903132059 69 0 0.0 1.0 0.00 0.30 0.30 95 1015.2
20260903131612 69 0 0.0 1.0 0.00 0.30 0.30 95 1015.2
20260903131058 68 0 0.0 1.0 0.00 0.30 0.30 95 1015.2
20260903130556 68 0 0.0 1.0 0.00 0.30 0.30 95 1015.3
20260903130103 68 0 0.0 1.0 0.00 0.30 0.30 95 1015.3
20260903125559 68 0 0.0 1.0 0.00 0.30 0.30 95 1015.3
20260903125059 67 0 0.0 1.0 0.01 0.30 0.30 95 1015.3
20260903124604 67 0 0.0 1.0 0.01 0.30 0.30 95 1015.3
20260903124058 67 0 0.0 1.0 0.01 0.30 0.30 95 1015.3
20260903123559 67 0 0.0 1.0 0.01 0.30 0.30 95 1015.4
20260903123106 67 0 0.0 2.0 0.01 0.30 0.30 95 1015.3
20260903122601 66 0 0.0 2.0 0.02 0.30 0.30 95 1015.4
20260903122100 66 0 0.0 2.0 0.02 0.30 0.30 95 1015.5
20260903121628 66 0 0.0 4.0 0.02 0.30 0.30 95 1015.8
20260903121058 66 271 0.0 4.0 0.02 0.30 0.30 95 1015.7
20260903120559 66 0 0.0 4.0 0.03 0.30 0.30 95 1015.8
20260903120107 66 189 0.0 2.0 0.04 0.30 0.30 95 1015.9
20260903115601 66 0 0.0 3.0 0.04 0.30 0.30 94 1015.8
20260903115100 65 0 0.0 3.0 0.03 0.29 0.29 94 1015.9
20260903114603 65 0 0.0 3.0 0.03 0.29 0.29 94 1015.9
20260903114056 65 0 0.0 2.0 0.03 0.29 0.29 94 1015.9
20260903113556 65 0 0.0 2.0 0.03 0.29 0.29 94 1015.9
20260903113119 65 0 0.0 2.0 0.03 0.29 0.29 94 1016.0
20260903112600 65 355 0.0 2.0 0.02 0.28 0.28 94 1015.9
20260903112057 65 350 0.0 4.0 0.02 0.28 0.28 94 1015.9
20260903111602 65 0 0.0 4.0 0.02 0.28 0.28 94 1016.0
20260903111059 65 0 0.0 3.0 0.03 0.28 0.28 94 1016.0
20260903110559 65 111 0.0 2.0 0.03 0.27 0.27 94 1016.0
20260903110105 65 0 0.0 2.0 0.03 0.26 0.26 94 1015.9
20260903105559 64 0 0.0 1.0 0.04 0.26 0.26 94 1016.0
20260903105059 64 0 0.0 2.0 0.06 0.26 0.26 94 1015.9
20260903104605 64 0 0.0 2.0 0.13 0.26 0.26 94 1015.9
20260903104057 64 0 0.0 2.0 0.17 0.26 0.26 94 1015.8
20260903103556 64 0 0.0 1.0 0.20 0.26 0.26 94 1015.6
20260903103102 64 0 0.0 1.0 0.21 0.26 0.26 94 1015.7
20260903102559 64 0 0.0 1.0 0.21 0.26 0.26 94 1015.7
20260903102058 64 0 0.0 1.0 0.21 0.26 0.26 94 1015.6
20260903101605 64 0 0.0 1.0 0.21 0.26 0.26 94 1015.6
20260903101057 64 0 0.0 2.0 0.21 0.25 0.25 94 1015.6
20260903100602 64 0 0.0 3.0 0.20 0.24 0.24 94 1015.6
20260903100106 63 0 0.0 3.0 0.19 0.23 0.23 93 1015.6
20260903095558 63 108 0.0 2.0 0.19 0.22 0.22 93 1015.8
20260903095059 63 0 0.0 1.0 0.16 0.19 0.19 93 1015.9
20260903094611 63 0 0.0 1.0 0.10 0.13 0.13 93 1016.0
20260903094057 63 0 0.0 1.0 0.07 0.09 0.09 93 1016.0
20260903093558 63 0 0.0 1.0 0.04 0.05 0.05 93 1016.1
20260903093107 63 0 0.0 2.0 0.05 0.05 0.05 93 1016.1
20260903092559 63 0 0.0 2.0 0.05 0.05 0.05 93 1016.2
20260903092056 63 0 0.0 2.0 0.05 0.05 0.05 93 1016.1
20260903091605 63 0 0.0 0.0 0.05 0.05 0.05 93 1016.1
20260903091059 63 0 0.0 0.0 0.04 0.04 0.04 92 1016.1
20260903090559 62 0 0.0 1.0 0.04 0.04 0.04 92 1016.2
20260903090109 62 0 0.0 1.0 0.04 0.04 0.04 92 1016.3
20260903085602 62 0 0.0 0.0 0.03 0.03 0.03 92 1016.3
20260903085059 62 0 0.0 0.0 0.03 0.03 0.03 92 1016.4
20260903084605 62 0 0.0 0.0 0.03 0.03 0.03 91 1016.5
20260903084102 62 0 0.0 0.0 0.02 0.02 0.02 91 1016.5
20260903083600 62 0 0.0 0.0 0.01 0.01 0.01 91 1016.7
20260903083102 62 0 0.0 1.0 0.00 0.00 0.00 91 1016.8
20260903082559 62 0 0.0 1.0 0.00 0.00 0.00 91 1016.7
20260903082059 63 0 0.0 1.0 0.00 0.00 0.00 91 1016.8
20260903081602 63 0 0.0 2.0 0.00 0.00 0.00 90 1016.7
20260903081058 63 0 0.0 2.0 0.00 0.00 0.00 90 1016.8
20260903080559 63 0 0.0 2.0 0.00 0.00 0.00 91 1016.7
20260903075600 62 0 0.0 0.0 0.00 0.00 0.00 90 1016.9
20260903075100 62 0 0.0 0.0 0.00 0.00 0.00 90 1017.1
20260903074559 62 0 0.0 0.0 0.00 0.00 0.00 90 1017.2
20260903074059 62 0 0.0 0.0 0.00 0.00 0.00 89 1017.1
20260903073600 62 0 0.0 1.0 0.00 0.00 0.00 89 1017.3
20260903073103 62 0 0.0 1.0 0.00 0.00 0.00 89 1017.2
20260903072559 62 0 0.0 1.0 0.00 0.00 0.00 88 1017.4
20260903072059 62 0 0.0 0.0 0.00 0.00 0.00 87 1017.4
20260903071604 62 0 0.0 2.0 0.00 0.00 0.00 88 1017.5
20260903071058 63 0 0.0 2.0 0.00 0.00 0.00 87 1017.6
20260903070559 63 0 0.0 2.0 0.00 0.00 0.00 87 1017.6
20260903070105 62 0 0.0 2.0 0.00 0.00 0.00 87 1017.8
20260903065601 62 0 0.0 0.0 0.00 0.00 0.00 87 1017.8
20260903065058 62 0 0.0 2.0 0.00 0.00 0.00 87 1018.0
20260903064601 63 0 0.0 2.0 0.00 0.00 0.00 87 1018.0
20260903064059 63 65 0.0 3.0 0.00 0.00 0.00 86 1018.1
20260903063600 63 0 1.0 3.0 0.00 0.00 0.00 86 1018.0
20260903063103 63 66 0.0 3.0 0.00 0.00 0.00 87 1018.2
20260903062559 63 0 0.0 3.0 0.00 0.00 0.00 87 1018.2
20260903062059 63 63 0.0 4.0 0.00 0.00 0.00 87 1018.3
20260903061603 63 0 0.0 4.0 0.00 0.00 0.00 87 1018.4
20260903061059 62 63 2.0 4.0 0.00 0.00 0.00 88 1018.5
20260903060559 62 0 0.0 3.0 0.00 0.00 0.00 88 1018.6
20260903060123 62 0 1.0 3.0 0.00 0.00 0.00 88 1018.7
20260903055559 62 67 0.0 3.0 0.00 0.00 0.00 89 1018.8
20260903055058 62 67 0.0 1.0 0.00 0.00 0.00 88 1019.0
20260903054602 62 0 0.0 2.0 0.00 0.00 0.00 88 1019.1
20260903054059 62 0 0.0 2.0 0.00 0.00 0.00 88 1019.2
20260903053558 62 67 0.0 2.0 0.00 0.00 0.00 88 1019.0
20260903053104 62 0 0.0 2.0 0.00 0.00 0.00 88 1019.1
20260903052601 62 0 0.0 4.0 0.00 0.00 0.00 88 1019.3
20260903052100 62 0 1.0 4.0 0.00 0.00 0.00 88 1019.2
20260903051608 62 69 2.0 4.0 0.00 0.00 0.00 88 1019.2
20260903051059 62 64 0.0 2.0 0.00 0.00 0.00 89 1019.5
20260903050602 62 0 0.0 0.0 0.00 0.00 0.00 89 1019.7
20260903050104 62 0 0.0 1.0 0.00 0.00 0.00 89 1019.9
20260903045556 62 0 0.0 1.0 0.00 0.00 0.00 90 1019.9
20260903045059 62 0 0.0 1.0 0.00 0.00 0.00 90 1019.9
20260903044601 62 0 0.0 1.0 0.00 0.00 0.00 90 1019.7
20260903044100 62 0 0.0 0.0 0.00 0.00 0.00 90 1019.7
20260903043603 62 0 0.0 0.0 0.00 0.00 0.00 90 1019.6
20260903043104 61 0 0.0 0.0 0.00 0.00 0.00 90 1019.4
20260903042559 61 0 0.0 0.0 0.00 0.00 0.00 90 1019.6
20260903042058 61 0 0.0 3.0 0.00 0.00 0.00 90 1019.4
20260903041603 61 0 0.0 3.0 0.00 0.00 0.00 90 1019.3
20260903041056 61 0 0.0 3.0 0.00 0.00 0.00 90 1019.2
20260903040602 61 0 0.0 3.0 0.00 0.00 0.00 90 1019.3
20260903035559 61 0 0.0 2.0 0.00 0.00 0.00 90 1019.5
20260903035059 61 0 0.0 2.0 0.00 0.00 0.00 90 1019.5
20260903034603 61 71 0.0 1.0 0.00 0.00 0.00 90 1019.6
20260903034100 61 0 0.0 1.0 0.00 0.00 0.00 90 1019.8
20260903033601 61 0 0.0 0.0 0.00 0.00 0.00 89 1019.9
20260903033104 61 0 0.0 0.0 0.00 0.00 0.00 90 1020.0
20260903032600 60 0 0.0 0.0 0.00 0.00 0.00 89 1020.0
20260903032100 60 0 0.0 0.0 0.00 0.00 0.00 90 1020.1
20260903031602 60 0 0.0 0.0 0.00 0.00 0.00 89 1019.9
20260903031059 60 0 0.0 0.0 0.00 0.00 0.00 89 1020.0
20260903030557 60 0 0.0 0.0 0.00 0.00 0.00 89 1020.1
20260903025559 60 0 0.0 0.0 0.00 0.00 0.00 89 1020.4
20260903025059 60 0 0.0 0.0 0.00 0.00 0.00 89 1020.4
20260903024608 60 0 0.0 0.0 0.00 0.00 0.00 89 1020.2
20260903024058 60 0 0.0 0.0 0.00 0.00 0.00 88 1020.4
20260903023600 61 0 0.0 0.0 0.00 0.00 0.00 88 1020.6
20260903023105 61 0 0.0 0.0 0.00 0.00 0.00 88 1020.5
20260903022600 61 0 0.0 0.0 0.00 0.00 0.00 88 1020.4
20260903022103 61 0 0.0 0.0 0.00 0.00 0.00 87 1020.3
20260903021606 61 0 0.0 0.0 0.00 0.00 0.00 87 1020.2
20260903021103 61 0 0.0 0.0 0.00 0.00 0.00 87 1020.2
20260903020559 61 0 0.0 1.0 0.00 0.00 0.00 86 1020.1
20260903015600 62 0 0.0 1.0 0.00 0.00 0.00 86 1020.2
20260903015059 62 0 0.0 1.0 0.00 0.00 0.00 86 1020.1
20260903014631 62 0 0.0 0.0 0.00 0.00 0.00 86 1020.2
20260903014059 62 0 0.0 0.0 0.00 0.00 0.00 86 1020.4
20260903013604 62 0 0.0 2.0 0.00 0.00 0.00 87 1020.4
20260903013119 62 0 0.0 2.0 0.00 0.00 0.00 86 1020.4
20260903012559 62 0 0.0 0.0 0.00 0.00 0.00 87 1020.3
20260903012059 62 0 0.0 0.0 0.00 0.00 0.00 87 1020.5
20260903011611 62 0 0.0 0.0 0.00 0.00 0.00 87 1020.6
20260903011100 62 0 0.0 2.0 0.00 0.00 0.00 86 1020.5
20260903010602 62 0 0.0 2.0 0.00 0.00 0.00 85 1020.6
20260903010104 63 0 0.0 0.0 0.00 0.00 0.00 85 1020.6
20260903005559 63 0 0.0 0.0 0.00 0.00 0.00 85 1020.8
20260903005100 63 0 0.0 0.0 0.00 0.00 0.00 84 1020.6
20260903004600 63 0 0.0 0.0 0.00 0.00 0.00 84 1020.7
20260903004059 64 0 0.0 0.0 0.00 0.00 0.00 83 1020.6
20260903003600 64 0 0.0 0.0 0.00 0.00 0.00 83 1020.6
20260903003103 64 0 0.0 0.0 0.00 0.00 0.00 83 1020.6
20260903002600 64 0 0.0 0.0 0.00 0.00 0.00 83 1020.6
20260903002059 64 0 0.0 0.0 0.00 0.00 0.00 83 1020.7
20260903001601 64 0 0.0 0.0 0.00 0.00 0.00 83 1020.9
20260903001100 64 0 0.0 0.0 0.00 0.00 0.00 84 1021.0
20260903000559 64 0 0.0 0.0 0.00 0.00 0.00 84 1021.1
20260903000107 64 0 0.0 0.0 0.00 0.00 0.00 84 1021.5
20260902235602 64 0 0.0 0.0 0.00 0.00 0.00 84 1021.5
20260902235100 64 0 0.0 0.0 0.00 0.00 0.00 84 1021.5
20260902234605 64 0 0.0 0.0 0.00 0.00 0.00 83 1021.4
20260902234103 64 0 0.0 0.0 0.00 0.00 0.00 83 1021.4
20260902233559 64 0 0.0 0.0 0.00 0.00 0.00 82 1021.3
20260902233103 65 0 0.0 0.0 0.00 0.00 0.00 82 1021.3
20260902232600 65 0 0.0 0.0 0.00 0.00 0.00 81 1021.3
20260902232059 65 0 0.0 0.0 0.00 0.00 0.00 80 1021.4
20260902231606 66 0 0.0 0.0 0.00 0.00 0.00 80 1021.4